Location: Fontenoy
(49.4072°N, 3.2008°E)
Time: 21:26:08
(UTC+00:00)

Okean 1 - Pass Details

Date: 15 May 2026
Orbit: 458 x 474 km, 82.5° (Epoch: 10 June)

Event Time Altitude Azimuth Distance (km) Brightness Sun altitude
Exits shadow 21:26:34 31° 156° (SSE) 853 3.7 -15.1°
Maximum altitude 21:27:59 53° 96° (E) 590 3.2 -15.2°
Drops below altitude 10° 21:31:30 10° 19° (NNE) 1,653 6.3 -15.6°
Sets 21:33:38 0° 14° (NNE) 2,539 7.4 -15.7°
